Location: North Smoke Tower Site
(30.5430°N, 82.3390°W)
Time: 01:32:21
(UTC-04:00)

Cosmos 1980 Rocket - Visible Passes

Search period start: 18 April 2014 00:00
Search period end: 28 April 2014 00:00
Orbit: 831 x 849 km, 71.0° (Epoch: 17 April)

Date Brightness Start Highest point End Pass type
(mag) Time Alt. Az. Time Alt. Az. Time Alt. Az.
18 Apr 4.9 06:12:40 10° SE 06:16:13 17° E 06:19:45 10° ENE visible
19 Apr 4.9 05:57:24 10° SE 06:00:41 16° E 06:03:56 10° ENE visible
20 Apr 4.9 05:42:11 10° SE 05:45:08 15° E 05:48:06 10° ENE visible
21 Apr 4.9 05:27:01 10° SE 05:29:36 13° E 05:32:12 10° ENE visible
22 Apr 5.0 05:11:55 10° ESE 05:14:04 12° E 05:16:13 10° ENE visible
23 Apr 5.0 04:56:59 10° ESE 04:58:33 11° E 05:00:06 10° E visible
24 Apr 5.1 04:42:39 10° E 04:43:01 10° E 04:43:23 10° E visible
24 Apr 2.2 06:20:38 10° SSW 06:26:16 74° WNW 06:31:54 10° NNE visible
25 Apr 2.2 06:05:03 10° SSW 06:10:42 79° WNW 06:16:21 10° NNE visible
26 Apr 2.2 05:49:29 10° SSW 05:55:08 85° WNW 06:00:47 10° NNE visible
27 Apr 2.2 05:34:25 13° SSW 05:39:34 89° ESE 05:45:13 10° NNE visible
